YAOGAN-21

Last updated on Fri Oct 04 2024 00:02:25 GMT+0000 (Coordinated Universal Time)

1 40143U 14053A 24277.53427678 .00023915 00000+0 99180-3 0 9998 2 40143 97.2401 331.9262 0007929 156.3621 203.7982 15.23840299560278
UTC large
Height (km)
Speed (km/s)
/
Latitude / Longitude
Inclination (degrees)
Orbital Period (minutes)
Azimuth
Elevation
Range (km)
Doppler Factor

Next 0 passes for location: London (51.5072 / 0.1276)

Sorry there are no passes over London.